Find STARLINK-37927

NORAD ID: 799500986 Int'l Des: 2026-135L Constellation: starlink operational

Aktuelle Ansicht

3D-Globus wird geladen...

About STARLINK-37927

STARLINK-37927 (NORAD 799500986) is a starlink constellation satellite launched Jun 8, 2026

Über STARLINK-37927

Beschreibung wird geladen...

Nächste Überflüge

Passes for default location (London). Set your location on the main map for personalized predictions.

Höhenverlauf

Loading altitude history...

Zweizeiliger Elementsatz

1 99999C 2026135L 26167.10673610 .00476740 00000-0 736470-4 0 1676
2 99999 97.2794 193.9151 0010679 264.8218 342.9469 16.03867835 13
Epoch: 16. Juni 2026 • Age: 4 hours